[[{"header":{"parameterUnit":"m.s-1","parameterCategory":1,"la1":30.2991,"la2":30.254,"lo1":-89.0895,"lo2":-89.0444,"dy":0.0017,"dx":0.0017,"nx":28,"ny":28,"refTime":"2025-06-05T21:00:00:Z","depth":0,"parameterNumber":2,"parameterNumberName":"U-component_of_WINDS"},"data":[0,0,0,0,0,0,0,0,0,0,0,0,0,0,0,0,0,0,0,0,0,0,0,0,0,0,0,0,0,0,0,0,0,0,0,0,0,0,0,0,0,0,0,0,0,0,0,0,0,0,0,0,0,0,0,0,0,0,0.1868,0.187,0,0.204,0.2042,0.2044,0.2119,0.2119,0.2119,0.2119,0.2299,0.2304,0.2309,0,0,0,0,0,0,0,0,0,0,0,0,0,0.1609,0.1613,0.1868,0.187,0.1872,0.2039,0.2042,0.2044,0.2119,0.2119,0.2119,0.2119,0.2298,0.2303,0.231,0,0,0,0,0,0,0,0,0,0,0,0,0,0.1745,0.1615,0.1867,0.193,0.1937,0.2039,0.2042,0.2045,0.2119,0.2119,0.2119,0.2118,0.2296,0.2303,0.231,0.2365,0,0,0.2334,0.2337,0,0,0,0,0,0,0,0,0.1737,0.1755,0.1918,0.1926,0.1934,0.2058,0.2017,0.2152,0.212,0.205,0.2119,0.2118,0.2219,0.2233,0.2266,0.2373,0.2381,0.2334,0.2339,0.2342,0.2344,0,0,0,0,0,0,0,0.1728,0.1748,0.1936,0.1921,0.193,0.195,0.1969,0.2043,0.2135,0.2056,0.2062,0.2081,0.2224,0.2259,0.2271,0.2384,0.2334,0.2341,0.2345,0.2348,0.2544,0.2545,0,0,0,0,0,0,0.1708,0.1739,0.1931,0.1941,0.1833,0.1955,0.1977,0.2018,0.2134,0.2152,0.2081,0.2084,0.2246,0.2262,0.2278,0.235,0.2342,0.2349,0.2353,0.2544,0.2544,0.2545,0,0,0,0,0,0,0.1702,0.1724,0.1924,0.1842,0.1869,0.196,0.2007,0.2022,0.2057,0.2153,0.2171,0.21,0.2247,0.2267,0.2342,0.2357,0.2352,0.2359,0.2543,0.2544,0.2545,0.2493,0,0,0,0,0,0,0.1694,0.1721,0.1742,0.1842,0.1873,0.1984,0.2008,0.2026,0.207,0.2075,0.2176,0.2192,0.2248,0.2331,0.235,0.2367,0.2365,0.2542,0.2543,0.2545,0.2494,0.2492,0.2491,0,0,0,0,0,0.1685,0.1721,0.1743,0.1765,0.19,0.1984,0.2002,0.2065,0.207,0.2093,0.2154,0.2189,0.2352,0.2338,0.236,0.238,0.2541,0.2543,0.2544,0.2495,0.2492,0.2491,0,0,0,0,0,0,0.1622,0.1736,0.176,0.183,0.1897,0.1997,0.2027,0.206,0.2128,0.213,0.2206,0.2228,0.2297,0.2346,0.2328,0.2439,0.245,0.2456,0.2404,0.2403,0.2401,0.2389,0.2372,0,0,0,0,0,0.1616,0.1674,0.177,0.1823,0.1855,0.1935,0.1974,0.2016,0.2088,0.2118,0.2185,0.2255,0.2323,0.2366,0.2433,0.2501,0.2525,0.2526,0.2524,0.2522,0.2527,0.2568,0.2569,0.255,0.255,0.255,0,0,0.1606,0.1675,0.1707,0.1812,0.1869,0.1928,0.1958,0.2019,0.2065,0.2128,0.2202,0.2254,0.2338,0.2409,0.2445,0.2453,0.2537,0.2524,0.2522,0.2528,0.2569,0.2571,0.2573,0.2551,0.2551,0.2551,0,0,0.1616,0.1673,0.1724,0.1779,0.1864,0.1917,0.1929,0.2024,0.206,0.2136,0.2185,0.224,0.2354,0.2412,0.2456,0.2488,0.2523,0.2508,0.25,0.2539,0.254,0.2542,0.2554,0.2557,0.2512,0.2512,0.2512,0,0.1592,0.1682,0.1746,0.1804,0.185,0.1908,0.196,0.2011,0.2114,0.2145,0.2152,0.2296,0.2357,0.2443,0.2451,0.2485,0.2502,0.2497,0.2534,0.2537,0.2539,0.2552,0.2556,0.251,0.251,0.251,0.251,0,0.1649,0.171,0.1741,0.1837,0.1886,0.1941,0.2014,0.2057,0.2094,0.2147,0.2224,0.2298,0.2381,0.2405,0.2443,0.2497,0.25,0.2519,0.2532,0.2538,0.2551,0.2556,0.2506,0.2507,0.2508,0.2508,0,0,0.1626,0.1756,0.1766,0.1811,0.1908,0.1958,0.2016,0.2096,0.2131,0.22,0.2251,0.2346,0.2365,0.2415,0.246,0.2494,0.2515,0.251,0.2514,0.2509,0.2581,0.2566,0.257,0.2538,0.254,0.2541,0.2574,0,0.165,0.1755,0.1814,0.1895,0.1954,0.2009,0.206,0.2126,0.2177,0.2235,0.2291,0.2357,0.2377,0.2407,0.2443,0.2505,0.2531,0.2503,0.2589,0.2591,0.2566,0.2577,0.2561,0.2589,0.2579,0.258,0.2581,0,0.1693,0.1759,0.1845,0.1937,0.1963,0.2008,0.2086,0.214,0.2217,0.2251,0.2306,0.2351,0.2416,0.2422,0.2513,0.2493,0.2532,0.2567,0.257,0.2581,0.2587,0.2589,0.26,0.2604,0.259,0.2589,0.2588,0,0.1668,0.1779,0.1845,0.1882,0.1989,0.2019,0.2066,0.2142,0.2186,0.2255,0.2285,0.2361,0.2403,0.2461,0.2525,0.2524,0.261,0.2622,0.2642,0.264,0.2659,0.2657,0.2676,0.2681,0.2681,0.2681,0.2681,0,0.1689,0.174,0.1835,0.1876,0.1935,0.2003,0.206,0.2111,0.2178,0.2231,0.2284,0.2333,0.2415,0.2474,0.2525,0.2593,0.2611,0.2642,0.2655,0.2638,0.2634,0.2665,0.2665,0.2683,0.2682,0.2682,0.2682,0,0.1672,0.1737,0.1813,0.1909,0.1934,0.1973,0.2056,0.2098,0.2151,0.2217,0.2237,0.232,0.2393,0.2462,0.256,0.2594,0.2662,0.2679,0.2636,0.2643,0.266,0.2657,0.27,0.271,0.2707,0.2707,0.2707,0,0.1681,0.1722,0.1821,0.1859,0.1904,0.1966,0.2011,0.208,0.2125,0.2215,0.2247,0.2322,0.2387,0.25,0.2571,0.2646,0.2665,0.2675,0.2677,0.2658,0.2667,0.2663,0.2668,0.2674,0.2673,0.2673,0.2673,0,0.1692,0.1722,0.1785,0.1859,0.1911,0.1973,0.2037,0.2065,0.2146,0.2195,0.2268,0.2318,0.2417,0.2492,0.2575,0.2625,0.2663,0.2671,0.268,0.2663,0.2637,0.2652,0.2632,0.267,0.2671,0.2671,0.2671,0.2671,0.1689,0.1728,0.1803,0.1872,0.1926,0.1985,0.2029,0.2087,0.2149,0.2234,0.2271,0.2346,0.2422,0.2537,0.2586,0.2647,0.2656,0.2668,0.2672,0.2674,0.267,0.2626,0.2662,0.2662,0.2662,0.2663,0.2663,0,0.1703,0.1754,0.1816,0.1903,0.1957,0.1986,0.2058,0.2101,0.2166,0.2233,0.2295,0.238,0.2453,0.2529,0.2607,0.2641,0.266,0.2659,0.2658,0.2669,0.2658,0.2642,0.2642,0.2642,0.2642,0.2642,0.2642,0.2642,0.1716,0.1783,0.1823,0.1918,0.197,0.2042,0.2081,0.2135,0.2189,0.2281,0.2342,0.239,0.2461,0.2544,0.2613,0.2634,0.266,0.2654,0.268,0.2668,0.2669,0.2671,0.2657,0.2659,0.2659,0.2686,0.2686,0.2687]},{"header":{"parameterUnit":"m.s-1","parameterCategory":1,"la1":30.2991,"la2":30.254,"lo1":-89.0895,"lo2":-89.0444,"dy":0.0017,"dx":0.0017,"nx":28,"ny":28,"refTime":"2025-06-05T21:00:00:Z","depth":0,"parameterNumber":3,"parameterNumberName":"V-component_of_WINDS"},"data":[0,0,0,0,0,0,0,0,0,0,0,0,0,0,0,0,0,0,0,0,0,0,0,0,0,0,0,0,0,0,0,0,0,0,0,0,0,0,0,0,0,0,0,0,0,0,0,0,0,0,0,0,0,0,0,0,0,0,2.9572,2.9572,0,2.9563,2.9563,2.9563,2.9572,2.9572,2.9572,2.9573,2.9562,2.9561,2.956,0,0,0,0,0,0,0,0,0,0,0,0,0,2.9593,2.9592,2.9572,2.9572,2.9571,2.9563,2.9563,2.9563,2.9572,2.9572,2.9573,2.9573,2.9562,2.9561,2.956,0,0,0,0,0,0,0,0,0,0,0,0,0,2.9584,2.9592,2.9572,2.9575,2.9575,2.9563,2.9563,2.9563,2.9572,2.9572,2.9573,2.9573,2.9562,2.9561,2.956,2.9544,0,0,2.9557,2.9557,0,0,0,0,0,0,0,0,2.9584,2.9583,2.9574,2.9575,2.9575,2.9569,2.9567,2.9557,2.9571,2.9573,2.9573,2.9573,2.9564,2.9563,2.956,2.9544,2.9543,2.9557,2.9557,2.9556,2.9556,0,0,0,0,0,0,0,2.9585,2.9583,2.9568,2.9574,2.9575,2.9576,2.9575,2.9565,2.9565,2.9573,2.9573,2.9572,2.9564,2.9561,2.956,2.9543,2.9557,2.9557,2.9556,2.9556,2.9512,2.9512,0,0,0,0,0,0,2.9586,2.9584,2.9568,2.9568,2.9581,2.9575,2.9574,2.957,2.9565,2.9565,2.9572,2.9573,2.9562,2.9561,2.9559,2.9539,2.9556,2.9556,2.9555,2.9513,2.9512,2.9512,0,0,0,0,0,0,2.9586,2.9584,2.9569,2.9576,2.9574,2.9574,2.957,2.957,2.9567,2.9565,2.9565,2.9569,2.9562,2.956,2.9548,2.9539,2.9555,2.9554,2.9514,2.9513,2.9512,2.95,0,0,0,0,0,0,2.9587,2.9584,2.9579,2.9576,2.9574,2.9558,2.9569,2.9569,2.9565,2.9567,2.9562,2.9562,2.9563,2.9549,2.9547,2.9538,2.9554,2.9514,2.9513,2.9512,2.9501,2.9499,2.9497,0,0,0,0,0,2.9587,2.9575,2.9578,2.9576,2.9567,2.9558,2.9557,2.9559,2.9565,2.9559,2.9557,2.9562,2.9541,2.9548,2.9545,2.9536,2.9515,2.9513,2.9512,2.9502,2.9499,2.9497,0,0,0,0,0,0,2.9576,2.9575,2.9578,2.9565,2.9562,2.9559,2.9552,2.9556,2.9549,2.9551,2.9553,2.9552,2.9538,2.9536,2.9544,2.952,2.9529,2.9527,2.9522,2.9519,2.9517,2.9517,2.9553,0,0,0,0,0,2.9572,2.9566,2.9565,2.9553,2.9551,2.9552,2.9548,2.955,2.9546,2.9544,2.9542,2.9537,2.9529,2.9524,2.9517,2.9501,2.9499,2.9493,2.9491,2.9489,2.9487,2.9478,2.9475,2.9507,2.9507,2.9507,0,0,2.9564,2.9563,2.9558,2.9551,2.9548,2.954,2.955,2.9542,2.9536,2.9543,2.953,2.9529,2.9523,2.9509,2.9502,2.9507,2.9478,2.9488,2.9486,2.9485,2.9476,2.9473,2.947,2.9506,2.9506,2.9507,0,0,2.9545,2.9543,2.9533,2.9531,2.9527,2.9527,2.9525,2.9522,2.9521,2.9509,2.9514,2.9507,2.9493,2.9489,2.9485,2.9464,2.9468,2.9462,2.945,2.9441,2.9438,2.9436,2.9428,2.9425,2.946,2.946,2.946,0,2.9534,2.9524,2.9527,2.9518,2.9515,2.9521,2.9511,2.9508,2.9501,2.9498,2.9503,2.9487,2.9484,2.9468,2.9463,2.946,2.9456,2.9462,2.9439,2.9436,2.9434,2.9426,2.9423,2.9459,2.946,2.946,2.946,0,2.9511,2.9503,2.9496,2.949,2.9486,2.9476,2.9477,2.9472,2.9474,2.9474,2.9461,2.9458,2.945,2.9446,2.9448,2.9431,2.9433,2.9439,2.9447,2.943,2.9423,2.942,2.9458,2.9459,2.9459,2.9459,0,0,2.9484,2.9481,2.9478,2.9475,2.9471,2.9465,2.9455,2.9448,2.9443,2.9439,2.943,2.9419,2.9423,2.9419,2.9421,2.9412,2.9395,2.9419,2.9418,2.9414,2.9374,2.9369,2.9366,2.9398,2.9397,2.9397,2.9374,0,2.9464,2.9448,2.945,2.9434,2.9427,2.9433,2.9424,2.9421,2.942,2.9413,2.9412,2.9403,2.9411,2.9408,2.9401,2.9399,2.9387,2.9401,2.9388,2.9388,2.9388,2.9362,2.9357,2.9336,2.9371,2.9371,2.937,0,2.9438,2.9433,2.9416,2.9414,2.9411,2.9403,2.9396,2.939,2.9385,2.9385,2.9381,2.9384,2.9373,2.9382,2.9367,2.9376,2.9371,2.9369,2.9369,2.9367,2.9377,2.9359,2.933,2.9326,2.9366,2.9366,2.9367,0,2.9419,2.9408,2.9397,2.9394,2.9391,2.9385,2.9383,2.938,2.9375,2.9369,2.9366,2.9359,2.9354,2.9348,2.9348,2.9356,2.9332,2.9342,2.9331,2.9331,2.9325,2.9325,2.9294,2.9323,2.9323,2.9323,2.9323,0,2.9396,2.9385,2.9388,2.9381,2.9368,2.9372,2.9359,2.9358,2.9355,2.9347,2.9352,2.9344,2.9345,2.9337,2.9337,2.9324,2.9322,2.9321,2.9321,2.932,2.932,2.9316,2.9317,2.9323,2.9323,2.9323,2.9323,0,2.9372,2.9373,2.9361,2.9359,2.9359,2.9349,2.9347,2.934,2.934,2.933,2.9327,2.9327,2.9318,2.9318,2.9307,2.9307,2.929,2.9292,2.9292,2.9292,2.928,2.9281,2.9245,2.924,2.9273,2.9273,2.9273,0,2.9356,2.9348,2.9346,2.9341,2.9339,2.9332,2.9327,2.933,2.9325,2.9319,2.9312,2.9303,2.9297,2.9281,2.9279,2.9271,2.9272,2.926,2.9271,2.927,2.9271,2.9271,2.9269,2.9257,2.9257,2.9257,2.9256,0,2.9328,2.933,2.9324,2.9318,2.9312,2.9307,2.9303,2.9299,2.9301,2.9295,2.9286,2.928,2.9269,2.926,2.9252,2.9249,2.9253,2.9253,2.925,2.9248,2.9248,2.9247,2.9285,2.9254,2.9254,2.9254,2.9254,2.9255,2.9308,2.9301,2.9298,2.929,2.9288,2.9283,2.9276,2.9276,2.9268,2.926,2.9262,2.9252,2.9247,2.9237,2.9233,2.9224,2.9228,2.9224,2.9222,2.9221,2.9219,2.925,2.9223,2.9223,2.9223,2.9223,2.9223,0,2.9279,2.9278,2.9271,2.9265,2.9259,2.9264,2.926,2.9254,2.9245,2.9241,2.9234,2.9223,2.9214,2.9212,2.9203,2.9196,2.9198,2.9194,2.9194,2.9193,2.9217,2.922,2.9193,2.9193,2.9193,2.9193,2.9193,2.9193,2.9264,2.9252,2.9253,2.9239,2.9238,2.9228,2.9225,2.9221,2.9217,2.9205,2.9198,2.9197,2.9193,2.9184,2.9176,2.9175,2.9171,2.9166,2.9166,2.9188,2.9191,2.9194,2.9197,2.9166,2.9166,2.9143,2.9143,2.9143]}]]